KF4KFQ Weather Reports


Display with metric or nautical units.
time (UTC)temp
F
wind
direction
speed
MPH
gust
MPH
rain 1hr
in
rain 24hr
in
rain mn
in
humidity
%
barometer
mb
20260504043328 50 157 1.0 2.0 0.00 0.00 0.00 73 1012.8
20260504041837 50 204 1.0 1.0 0.00 0.00 0.00 73 1012.9
20260504040339 50 158 0.0 1.0 0.00 0.00 0.00 72 1013.2
20260504034825 51 211 0.0 0.0 0.00 0.00 0.00 72 1013.2
20260504033329 51 177 0.0 0.0 0.00 0.00 0.00 71 1013.1
20260504031836 52 177 0.0 2.0 0.00 0.00 0.00 70 1013.2
20260504030339 52 178 0.0 2.0 0.00 0.00 0.00 68 1013.3
20260504024902 53 178 0.0 2.0 0.00 0.00 0.00 67 1013.2
20260504023343 54 186 0.0 1.0 0.00 0.00 0.00 66 1013.2
20260504021832 55 186 0.0 2.0 0.00 0.00 0.00 62 1013.1
20260504020326 56 189 0.0 2.0 0.00 0.00 0.00 59 1012.8
20260504014852 56 189 0.0 2.0 0.00 0.00 0.00 57 1012.4
20260504013326 58 210 0.0 2.0 0.00 0.00 0.00 55 1012.5
20260504011832 60 210 0.0 2.0 0.00 0.00 0.00 51 1012.4
20260504010338 61 214 1.0 2.0 0.00 0.00 0.00 48 1012.7
20260504004824 63 207 0.0 4.0 0.00 0.00 0.00 46 1012.4
20260504003330 64 201 0.0 3.0 0.00 0.00 0.00 43 1012.4
20260504001825 66 197 0.0 3.0 0.00 0.00 0.00 41 1012.5
20260504000330 68 185 2.0 6.0 0.00 0.00 0.00 38 1012.6
20260503234826 70 192 1.0 4.0 0.00 0.00 0.00 36 1012.9
20260503233329 70 238 2.0 5.0 0.00 0.00 0.00 36 1013.1
20260503231824 70 211 3.0 9.0 0.00 0.00 0.00 35 1013.0
20260503230328 71 182 3.0 12.0 0.00 0.00 0.00 34 1013.0
20260503224827 71 188 2.0 7.0 0.00 0.00 0.00 35 1013.2
20260503223330 72 270 2.0 11.0 0.00 0.00 0.00 33 1013.5
20260503221827 72 202 1.0 8.0 0.00 0.00 0.00 32 1013.8
20260503220324 73 193 2.0 6.0 0.00 0.00 0.00 31 1013.9
20260503214825 73 217 2.0 7.0 0.00 0.00 0.00 34 1013.9
20260503213330 72 229 2.0 6.0 0.00 0.00 0.00 35 1014.2
20260503211824 71 247 4.0 9.0 0.00 0.00 0.00 34 1014.6
20260503210326 72 244 1.0 6.0 0.00 0.00 0.00 31 1014.7
20260503204834 71 157 2.0 10.0 0.00 0.00 0.00 33 1014.9
20260503203337 71 221 3.0 10.0 0.00 0.00 0.00 33 1015.0
20260503201840 70 211 4.0 10.0 0.00 0.00 0.00 32 1015.4
20260503200325 70 167 4.0 8.0 0.00 0.00 0.00 34 1015.7
20260503194833 70 269 4.0 11.0 0.00 0.00 0.00 33 1015.9
20260503193334 70 165 3.0 11.0 0.00 0.00 0.00 34 1016.3
20260503191839 70 223 2.0 6.0 0.00 0.00 0.00 36 1016.3
20260503190343 69 65 3.0 12.0 0.00 0.00 0.00 35 1016.6
20260503184830 69 217 4.0 7.0 0.00 0.00 0.00 37 1016.8
20260503183325 68 183 2.0 5.0 0.00 0.00 0.00 33 1017.1
20260503181827 67 185 1.0 9.0 0.00 0.00 0.00 38 1017.1
20260503180330 67 194 3.0 8.0 0.00 0.00 0.00 35 1017.2
20260503174827 67 69 4.0 8.0 0.00 0.00 0.00 40 1017.4
20260503173335 66 194 2.0 8.0 0.00 0.00 0.00 38 1017.8
20260503171835 66 230 2.0 5.0 0.00 0.00 0.00 39 1018.0
20260503170358 65 26 1.0 5.0 0.00 0.00 0.00 39 1018.1
20260503150333 61 57 2.0 5.0 0.00 0.00 0.00 41 1019.1
20260503130328 49 224 1.0 2.0 0.00 0.00 0.00 86 1019.0
20260503110326 35 211 0.0 1.0 0.00 0.00 0.00 93 1018.0
20260503090336 38 220 0.0 0.0 0.00 0.00 0.00 93 1017.4
20260503080339 40 220 0.0 0.0 0.00 0.00 0.00 93 1017.2
20260503071859 40 220 0.0 0.0 0.00 0.00 0.00 93 1017.2
20260503070325 40 220 0.0 0.0 0.00 0.00 0.00 92 1017.0
20260503060329 41 220 0.0 0.0 0.00 0.00 0.00 90 1017.1
20260503054826 42 220 0.0 0.0 0.00 0.00 0.00 90 1017.1
20260503053330 42 225 0.0 0.0 0.00 0.00 0.00 91 1017.1
20260503051826 43 329 0.0 0.0 0.00 0.00 0.00 90 1016.9
20260503050353 43 329 0.0 0.0 0.00 0.00 0.00 91 1016.7
20260503044826 43 329 0.0 2.0 0.00 0.00 0.00 89 1016.7